Weather at Rivne International Airport

Public forecast

Using degrees Celsius for public forecast. Weather courtesy of forecast.io.

Current aviation weather report (METAR) for Rivne International Airport

Retrieved 2021/10/24 09:00 UTC (30 minutes ago):

UKLR 240900Z 31005MPS 9999 BKN020 05/01 Q1029 NOSIG

Aviation forecast (TAF) for Rivne International Airport

Forecast is more than 12 hours old.

Retrieved 2019/08/16 12:15 UTC (2 years ago):

TAF TAF UKLR 161105Z 1612/1821 35003MPS 9999 BKN020 SCT023CB